Kinston, NC

8:55 AM EDT on August 18, 2017 (GMT -0400)
Kinston Regional Jetport / Stallings Field

Weather History for KISO - May, 2014

Change the Weather History Date:

Friday, May 9, 2014

  Actual Average Record
Temperature  
Mean Temperature 78 °F -  
Max Temperature 91 °F 77 °F 91 °F (2002)
Min Temperature 65 °F 57 °F 41 °F (1976)
Cooling Degree Days 13    
Growing Degree Days 28 (Base 50)    
Moisture  
Dew Point 62 °F    
Average Humidity 67    
Maximum Humidity 88    
Minimum Humidity 26    
Precipitation  
Precipitation 0.00 in - - ()
Sea Level Pressure  
Sea Level Pressure 30.13 in    
Wind  
Wind Speed 7 mph (SW)    
Max Wind Speed 13 mph    
Max Gust Speed 17 mph    
Visibility 10 miles    
Events      
Averages and records for this station are not official NWS values.
T = Trace of Precipitation, MM = Missing Value Source: NWS Daily Summary

Daily Weather History Graph

Daily Weather History Graph

Search for Another Location

Airport or City:

Trip Planner

Search our weather history database for the weather conditions in past years. The results will help you decide how hot, cold, wet, or windy it might be!

Date:

Astronomy

May. 09, 2014 Rise Set
Actual Time 6:11 AM EDT 8:03 PM EDT
Civil Twilight 5:43 AM EDT 8:30 PM EDT
Nautical Twilight 5:09 AM EDT 9:04 PM EDT
Astronomical Twilight 4:34 AM EDT 9:40 PM EDT
Moon 3:09 PM EDT (5/9) 3:00 AM EDT (5/9)
Length of Visible Light 14h 47m
Length of Day
13h 51m
Waxing Gibbous, 73% of the Moon is Illuminated
May 9
Waxing Gibbous
May 14
Full
May 21
Last Quarter
May 28
New
Jun 5
First Quarter

Hourly Weather History & Observations

Time (EDT) Temp. Heat Index Dew Point Humidity Pressure Visibility Wind Dir Wind Speed Gust Speed Precip Events Conditions
12:15 AM 71.4 °F - 63.7 °F 76% 30.14 in 10.0 mi SSW 5.8 mph - N/A   Clear
12:35 AM 71.6 °F - 63.9 °F 76% 30.14 in 10.0 mi SSW 5.8 mph - N/A   Clear
12:55 AM 71.1 °F - 64.2 °F 79% 30.14 in 10.0 mi SSW 5.8 mph - N/A   Clear
1:15 AM 71.2 °F - 64.4 °F 79% 30.13 in 10.0 mi SW 5.8 mph - N/A   Clear
1:35 AM 70.5 °F - 64.4 °F 81% 30.14 in 10.0 mi SW 5.8 mph - N/A   Clear
1:55 AM 70.3 °F - 64.4 °F 81% 30.13 in 10.0 mi SW 4.6 mph - N/A   Clear
2:15 AM 69.4 °F - 64.4 °F 84% 30.13 in 10.0 mi SSW 5.8 mph - N/A   Clear
2:35 AM 69.4 °F - 64.6 °F 84% 30.13 in 10.0 mi SW 5.8 mph - N/A   Clear
2:55 AM 69.1 °F - 64.8 °F 86% 30.13 in 10.0 mi SW 5.8 mph - N/A   Clear
3:15 AM 69.3 °F - 64.6 °F 85% 30.12 in 10.0 mi SW 6.9 mph - N/A   Clear
3:35 AM 68.9 °F - 64.4 °F 86% 30.13 in 10.0 mi SW 6.9 mph - N/A   Clear
3:55 AM 68.5 °F - 64.4 °F 87% 30.13 in 10.0 mi SW 5.8 mph - N/A   Clear
4:15 AM 68.2 °F - 64.4 °F 88% 30.13 in 10.0 mi SW 6.9 mph - N/A   Clear
4:35 AM 68.0 °F - 63.9 °F 87% 30.13 in 10.0 mi SSW 6.9 mph - N/A   Clear
4:55 AM 67.5 °F - 63.5 °F 87% 30.13 in 10.0 mi SW 6.9 mph - N/A   Clear
5:15 AM 67.3 °F - 63.1 °F 87% 30.13 in 10.0 mi SW 5.8 mph - N/A   Clear
5:35 AM 67.3 °F - 62.6 °F 85% 30.14 in 10.0 mi SW 6.9 mph - N/A   Clear
5:55 AM 66.7 °F - 62.1 °F 85% 30.14 in 10.0 mi SW 5.8 mph - N/A   Clear
6:15 AM 66.4 °F - 61.7 °F 85% 30.15 in 10.0 mi SW 5.8 mph - N/A   Clear
6:35 AM 65.8 °F - 61.5 °F 86% 30.16 in 10.0 mi SW 5.8 mph - N/A   Clear
6:56 AM 66.2 °F - 60.8 °F 83% 30.16 in 10.0 mi SW 4.6 mph - N/A   Clear
7:56 AM 71.6 °F - 60.8 °F 69% 30.18 in 10.0 mi SW 8.1 mph - N/A   Clear
8:56 AM 75.2 °F - 62.6 °F 65% 30.18 in 10.0 mi WSW 6.9 mph - N/A   Clear
9:56 AM 78.8 °F - 60.8 °F 54% 30.18 in 10.0 mi WSW 9.2 mph - N/A   Clear
10:56 AM 84.2 °F 84.4 °F 60.8 °F 45% 30.18 in 10.0 mi SW 12.7 mph 17.3 mph N/A   Clear
11:56 AM 86.0 °F 85.4 °F 59.0 °F 40% 30.16 in 10.0 mi SW 8.1 mph - N/A   Clear
12:56 PM 89.6 °F 88.9 °F 59.0 °F 36% 30.17 in 10.0 mi WSW 8.1 mph 16.1 mph N/A   Clear
1:56 PM 89.6 °F 87.7 °F 55.4 °F 31% 30.12 in 10.0 mi SW 11.5 mph - N/A   Clear
2:56 PM 89.6 °F 87.3 °F 53.6 °F 29% 30.09 in 10.0 mi SW 10.4 mph 16.1 mph N/A   Clear
3:56 PM 91.4 °F - 51.8 °F 26% 30.07 in 10.0 mi SW 8.1 mph - N/A   Clear
4:56 PM 91.4 °F - 51.8 °F 26% 30.06 in 10.0 mi SW 11.5 mph - N/A   Clear
5:56 PM 87.8 °F - 51.8 °F 29% 30.05 in 10.0 mi SSW 10.4 mph - N/A   Clear
6:56 PM 87.8 °F 85.7 °F 53.6 °F 31% 30.06 in 10.0 mi SSW 11.5 mph - N/A   Clear
7:56 PM 82.4 °F 82.0 °F 57.2 °F 42% 30.07 in 10.0 mi SSW 9.2 mph - N/A   Clear
8:56 PM 80.6 °F 82.7 °F 66.2 °F 61% 30.09 in 10.0 mi SSW 8.1 mph - N/A   Clear
10:15 PM 76.5 °F - 64.4 °F 66% 30.11 in 10.0 mi SSW 9.2 mph - N/A   Clear
10:35 PM 75.7 °F - 64.8 °F 69% 30.11 in 10.0 mi South 10.4 mph - N/A   Clear
10:55 PM 74.8 °F - 64.4 °F 70% 30.11 in 10.0 mi South 8.1 mph - N/A   Clear
11:15 PM 74.3 °F - 64.4 °F 71% 30.11 in 10.0 mi SSW 9.2 mph - N/A   Clear
11:35 PM 73.8 °F - 64.4 °F 72% 30.11 in 10.0 mi SSW 9.2 mph - N/A   Clear
11:55 PM 73.0 °F - 64.6 °F 75% 30.12 in 10.0 mi SSW 9.2 mph - N/A   Clear